Location: Nashville
(36.1660°N, 86.7840°W)
Time: 08:52:58
(UTC-05:00)

Vanguard 1 Rocket - Pass Details

Date: 30 January 2022
Orbit: 651 x 4224 km, 34.3° (Epoch: 21 May)

Event Time Altitude Azimuth Distance (km) Brightness Sun altitude
Rises 17:43:59 0° 286° (WNW) 6,938 13.0 -7.0°
Reaches altitude 10° 17:50:22 10° 276° (W) 5,239 12.6 -8.2°
Maximum altitude 18:00:21 24° 229° (SW) 3,020 10.9 -10.2°
Drops below altitude 10° 18:06:42 10° 178° (S) 3,192 10.3 -11.4°
Sets 18:09:31 0° 163° (SSE) 3,806 10.6 -12.0°
